Starlink 36066

operational
NORAD ID: 66592 Int'l Des: 2025-270 Owner: SPXS Country: US Constellation: starlink
LEOCIRCULAR

Über Starlink 36066

Beschreibung wird geladen...

Live-Position

3D-Globus wird geladen...

Nächste Überflüge

Höhenverlauf

Altitude vs Time

uPlot chart will show altitude changes over time

Zweizeiliger Elementsatz

1 66592U 25270E 26062.15373372 .00041320 00000-0 15018-2 0 9998
2 66592 43.0006 93.3230 0001454 263.3903 96.6783 15.27598128 16603
Epoch: 3. März 2026 • Age: 23 hours

Aktueller Status

Höhe 482.2 km
Geschwindigkeit 7.63 km/s
Subsatellitenpunkt 6.60°N, 44.17°W
Startdatum 22. Nov. 2025
Alter 0.2 years
Typ internet

Technische Details

Klassifizierung Payload
Masse 575.00 kg
Trockenmasse 530.00 kg
Gesamtmasse 575.00 kg
Länge 0.30 m
Durchmesser 4.10 m
Spannweite 29.00 m
Form Box + pan
Hersteller SPXS
Bus-Typ Starlink V2MO
Phasenstatus In Orbit
Besitzer/Staat SPXS/US

Große Konstellationen

Loading constellations...